EAG2CB EGAC-EGFF

Flight info

Callsign EAG2CB
Flight time 1h 9m
Altitude 21000
Route DUFFY L15 PEPOD Q38 MALUD L15 RISLA N862 WEVBE
Aircraft AT76/M-SDFGIRY/S

Departure

Time 2026-04-21 15:48
Airport George Best Belfast City Airport (EGAC)

Arrival

Time 2026-04-21 16:57
Airport Cardiff International Airport (EGFF)
Time Latitude Longitude Altitude Speed Heading
2026-04-21 15:32 54.61433 -5.87217 21 ft 0 kts 124°
2026-04-21 15:41 54.61434 -5.87220 20 ft 2 kts 124°
2026-04-21 15:41 54.61448 -5.87255 23 ft 4 kts 130°
2026-04-21 15:41 54.61468 -5.87282 20 ft 4 kts 173°
2026-04-21 15:41 54.61487 -5.87276 21 ft 1 kts 214°
2026-04-21 15:42 54.61490 -5.87272 22 ft 0 kts 214°
2026-04-21 15:44 54.61489 -5.87274 22 ft 2 kts 214°
2026-04-21 15:45 54.61457 -5.87312 21 ft 8 kts 215°
2026-04-21 15:45 54.61404 -5.87394 20 ft 13 kts 234°
2026-04-21 15:45 54.61329 -5.87509 20 ft 15 kts 215°
2026-04-21 15:45 54.61236 -5.87619 19 ft 17 kts 214°
2026-04-21 15:46 54.61135 -5.87737 19 ft 17 kts 216°
2026-04-21 15:46 54.61087 -5.87884 19 ft 16 kts 281°
2026-04-21 15:46 54.61149 -5.88021 19 ft 10 kts 356°
2026-04-21 15:46 54.61182 -5.87999 19 ft 0 kts 34°
2026-04-21 15:47 54.61183 -5.87997 19 ft 3 kts 34°
2026-04-21 15:47 54.61368 -5.87777 17 ft 65 kts 35°
2026-04-21 15:47 54.61871 -5.87161 23 ft 109 kts 35°
2026-04-21 15:47 54.62548 -5.86437 364 ft 116 kts 41°
2026-04-21 15:48 54.63232 -5.85711 826 ft 118 kts 40°
2026-04-21 15:48 54.63988 -5.84922 983 ft 140 kts 38°
2026-04-21 15:48 54.64893 -5.84003 1097 ft 156 kts 39°
2026-04-21 15:48 54.65405 -5.82494 1470 ft 147 kts 92°
2026-04-21 15:49 54.64991 -5.80881 1838 ft 149 kts 120°
2026-04-21 15:49 54.64226 -5.79725 2164 ft 160 kts 158°
2026-04-21 15:49 54.63055 -5.79679 2550 ft 171 kts 174°
2026-04-21 15:49 54.61858 -5.79777 2942 ft 172 kts 175°
2026-04-21 15:50 54.60682 -5.79817 3346 ft 166 kts 159°
2026-04-21 15:50 54.59715 -5.78961 3682 ft 156 kts 140°
2026-04-21 15:50 54.58765 -5.78016 4092 ft 158 kts 143°
2026-04-21 15:50 54.57773 -5.77154 4507 ft 161 kts 146°
2026-04-21 15:51 54.56746 -5.76354 4937 ft 163 kts 148°
2026-04-21 15:51 54.55686 -5.75607 5360 ft 165 kts 151°
2026-04-21 15:51 54.54620 -5.74915 5758 ft 165 kts 152°
2026-04-21 15:51 54.53543 -5.74218 6175 ft 165 kts 152°
2026-04-21 15:52 54.52469 -5.73517 6606 ft 165 kts 153°
2026-04-21 15:52 54.51397 -5.72813 7004 ft 165 kts 153°
2026-04-21 15:52 54.50681 -5.72350 7249 ft 166 kts 153°
2026-04-21 15:52 54.49253 -5.71407 7746 ft 166 kts 153°
2026-04-21 15:53 54.48172 -5.70690 8110 ft 167 kts 153°
2026-04-21 15:53 54.47080 -5.69971 8480 ft 168 kts 153°
2026-04-21 15:53 54.46352 -5.69491 8724 ft 169 kts 153°
2026-04-21 15:53 54.44889 -5.68526 9201 ft 170 kts 153°
2026-04-21 15:54 54.43777 -5.67794 9557 ft 172 kts 153°
2026-04-21 15:54 54.43019 -5.67295 9803 ft 173 kts 153°
2026-04-21 15:54 54.41905 -5.66562 10149 ft 174 kts 153°
2026-04-21 15:54 54.40772 -5.65815 10471 ft 174 kts 153°
2026-04-21 15:55 54.39632 -5.65071 10786 ft 175 kts 154°
2026-04-21 15:55 54.38484 -5.64316 11104 ft 176 kts 154°
2026-04-21 15:55 54.37347 -5.63568 11400 ft 177 kts 154°
2026-04-21 15:55 54.36180 -5.62801 11648 ft 182 kts 154°
2026-04-21 15:56 54.34997 -5.62021 11910 ft 185 kts 155°
2026-04-21 15:56 54.33790 -5.61229 12203 ft 186 kts 155°
2026-04-21 15:56 54.32580 -5.60439 12507 ft 187 kts 155°
2026-04-21 15:56 54.31359 -5.59640 12788 ft 187 kts 155°
2026-04-21 15:57 54.30134 -5.58839 13083 ft 188 kts 155°
2026-04-21 15:57 54.28920 -5.58046 13375 ft 189 kts 155°
2026-04-21 15:57 54.27687 -5.57240 13691 ft 190 kts 155°
2026-04-21 15:57 54.26595 -5.56068 13920 ft 185 kts 128°
2026-04-21 15:58 54.25836 -5.54247 14087 ft 190 kts 123°
2026-04-21 15:58 54.25109 -5.52376 14317 ft 190 kts 123°
2026-04-21 15:58 54.24369 -5.50491 14522 ft 194 kts 124°
2026-04-21 15:58 54.23609 -5.48573 14769 ft 193 kts 124°
2026-04-21 15:59 54.22831 -5.46686 14984 ft 196 kts 125°
2026-04-21 15:59 54.22046 -5.44810 15283 ft 193 kts 126°
2026-04-21 15:59 54.21249 -5.42916 15448 ft 196 kts 126°
2026-04-21 15:59 54.20476 -5.41085 15806 ft 191 kts 126°
2026-04-21 16:00 54.19683 -5.39204 15900 ft 198 kts 126°
2026-04-21 16:00 54.18860 -5.37248 15934 ft 207 kts 126°
2026-04-21 16:00 54.18002 -5.35240 15957 ft 215 kts 126°
2026-04-21 16:00 54.17104 -5.33141 15964 ft 222 kts 126°
2026-04-21 16:01 54.16177 -5.30960 15970 ft 229 kts 126°
2026-04-21 16:01 54.15226 -5.28730 15963 ft 234 kts 126°
2026-04-21 16:01 54.14261 -5.26497 15964 ft 238 kts 126°
2026-04-21 16:01 54.13276 -5.24213 15964 ft 240 kts 126°
2026-04-21 16:02 54.12288 -5.21899 15962 ft 242 kts 126°
2026-04-21 16:02 54.11293 -5.19564 15959 ft 244 kts 126°
2026-04-21 16:02 54.10292 -5.17214 15958 ft 245 kts 126°
2026-04-21 16:02 54.09285 -5.14854 15959 ft 246 kts 126°
2026-04-21 16:03 54.08273 -5.12492 15959 ft 247 kts 126°
2026-04-21 16:03 54.07270 -5.10149 15958 ft 247 kts 126°
2026-04-21 16:03 54.06254 -5.07778 15960 ft 248 kts 126°
2026-04-21 16:03 54.05228 -5.05388 15956 ft 248 kts 126°
2026-04-21 16:04 54.04222 -5.03043 15958 ft 248 kts 126°
2026-04-21 16:04 54.03205 -5.00678 15951 ft 247 kts 126°
2026-04-21 16:04 54.02190 -4.98315 15950 ft 247 kts 126°
2026-04-21 16:04 54.01173 -4.95952 15950 ft 247 kts 126°
2026-04-21 16:05 54.00155 -4.93590 15952 ft 247 kts 126°
2026-04-21 16:05 53.99138 -4.91233 15951 ft 248 kts 126°
2026-04-21 16:05 53.98128 -4.88897 15952 ft 248 kts 126°
2026-04-21 16:05 53.97104 -4.86527 15953 ft 248 kts 126°
2026-04-21 16:06 53.96081 -4.84166 15951 ft 248 kts 126°
2026-04-21 16:06 53.95056 -4.81800 15946 ft 248 kts 126°
2026-04-21 16:06 53.94029 -4.79433 15938 ft 248 kts 126°
2026-04-21 16:06 53.93009 -4.77084 15937 ft 247 kts 126°
2026-04-21 16:07 53.91989 -4.74732 15938 ft 247 kts 126°
2026-04-21 16:07 53.90989 -4.72436 16113 ft 240 kts 126°
2026-04-21 16:07 53.90000 -4.70179 16251 ft 236 kts 126°
2026-04-21 16:07 53.89020 -4.67925 16332 ft 237 kts 126°
2026-04-21 16:08 53.87066 -4.63445 16372 ft 239 kts 126°
2026-04-21 16:08 53.86074 -4.61172 16380 ft 240 kts 126°
2026-04-21 16:08 53.85076 -4.58888 16372 ft 242 kts 126°
2026-04-21 16:09 53.84079 -4.56613 16370 ft 243 kts 126°
2026-04-21 16:09 53.83067 -4.54300 16370 ft 245 kts 126°
2026-04-21 16:09 53.82044 -4.51975 16368 ft 246 kts 126°
2026-04-21 16:09 53.81020 -4.49641 16366 ft 248 kts 126°
2026-04-21 16:10 53.79986 -4.47282 16363 ft 249 kts 126°
2026-04-21 16:10 53.78957 -4.44949 16363 ft 249 kts 126°
2026-04-21 16:10 53.77920 -4.42594 16359 ft 250 kts 126°
2026-04-21 16:10 53.76878 -4.40222 16358 ft 250 kts 126°
2026-04-21 16:11 53.75841 -4.37873 16351 ft 249 kts 126°
2026-04-21 16:11 53.74804 -4.35520 16347 ft 249 kts 126°
2026-04-21 16:11 53.73767 -4.33167 16351 ft 250 kts 126°
2026-04-21 16:11 53.72725 -4.30815 16349 ft 250 kts 126°
2026-04-21 16:12 53.71695 -4.28483 16352 ft 251 kts 126°
2026-04-21 16:12 53.70645 -4.26113 16351 ft 251 kts 126°
2026-04-21 16:12 53.69595 -4.23749 16354 ft 251 kts 126°
2026-04-21 16:12 53.68556 -4.21407 16346 ft 251 kts 126°
2026-04-21 16:13 53.67504 -4.19041 16348 ft 251 kts 126°
2026-04-21 16:13 53.66456 -4.16684 16342 ft 251 kts 126°
2026-04-21 16:13 53.65422 -4.14354 16343 ft 251 kts 126°
2026-04-21 16:13 53.64372 -4.11995 16345 ft 252 kts 126°
2026-04-21 16:14 53.63314 -4.09630 16343 ft 252 kts 127°
2026-04-21 16:14 53.62220 -4.07319 16346 ft 253 kts 129°
2026-04-21 16:14 53.61099 -4.05059 16343 ft 254 kts 129°
2026-04-21 16:14 53.59962 -4.02769 16346 ft 253 kts 129°
2026-04-21 16:15 53.58829 -4.00494 16349 ft 254 kts 129°
2026-04-21 16:15 53.57699 -3.98213 16349 ft 253 kts 129°
2026-04-21 16:15 53.56574 -3.95933 16347 ft 253 kts 129°
2026-04-21 16:15 53.55453 -3.93645 16347 ft 253 kts 129°
2026-04-21 16:16 53.54336 -3.91353 16347 ft 253 kts 129°
2026-04-21 16:16 53.53218 -3.89067 16350 ft 253 kts 129°
2026-04-21 16:16 53.52111 -3.86811 16349 ft 253 kts 129°
2026-04-21 16:16 53.50988 -3.84520 16348 ft 254 kts 129°
2026-04-21 16:17 53.49862 -3.82229 16348 ft 255 kts 129°
2026-04-21 16:17 53.48732 -3.79935 16340 ft 254 kts 129°
2026-04-21 16:17 53.47608 -3.77641 16337 ft 254 kts 128°
2026-04-21 16:17 53.46493 -3.75374 16339 ft 254 kts 129°
2026-04-21 16:18 53.45367 -3.73091 16337 ft 253 kts 129°
2026-04-21 16:18 53.44246 -3.70817 16339 ft 252 kts 129°
2026-04-21 16:18 53.43123 -3.68538 16339 ft 253 kts 129°
2026-04-21 16:18 53.42011 -3.66291 16341 ft 252 kts 129°
2026-04-21 16:19 53.40887 -3.64013 16341 ft 253 kts 129°
2026-04-21 16:19 53.39762 -3.61745 16342 ft 253 kts 129°
2026-04-21 16:19 53.38642 -3.59472 16333 ft 253 kts 129°
2026-04-21 16:19 53.37513 -3.57206 16336 ft 251 kts 128°
2026-04-21 16:20 53.36412 -3.54977 16336 ft 251 kts 129°
2026-04-21 16:20 53.35294 -3.52730 16337 ft 250 kts 129°
2026-04-21 16:20 53.34179 -3.50497 16335 ft 249 kts 128°
2026-04-21 16:20 53.33074 -3.48272 16338 ft 248 kts 129°
2026-04-21 16:21 53.31985 -3.46074 16343 ft 248 kts 128°
2026-04-21 16:21 53.30869 -3.43843 16343 ft 249 kts 129°
2026-04-21 16:21 53.29766 -3.41627 16340 ft 249 kts 129°
2026-04-21 16:21 53.28650 -3.39387 16345 ft 250 kts 129°
2026-04-21 16:22 53.27530 -3.37157 16344 ft 250 kts 129°
2026-04-21 16:22 53.26427 -3.34952 16343 ft 250 kts 129°
2026-04-21 16:22 53.25314 -3.32717 16342 ft 250 kts 129°
2026-04-21 16:22 53.24200 -3.30489 16341 ft 249 kts 129°
2026-04-21 16:23 53.23083 -3.28273 16340 ft 249 kts 129°
2026-04-21 16:23 53.21968 -3.26054 16348 ft 248 kts 129°
2026-04-21 16:23 53.20871 -3.23859 16347 ft 249 kts 129°
2026-04-21 16:23 53.19754 -3.21641 16347 ft 249 kts 129°
2026-04-21 16:24 53.18635 -3.19424 16342 ft 250 kts 129°
2026-04-21 16:24 53.17514 -3.17191 16346 ft 252 kts 129°
2026-04-21 16:24 53.16392 -3.14966 16349 ft 253 kts 129°
2026-04-21 16:24 53.15258 -3.12728 16351 ft 253 kts 129°
2026-04-21 16:25 53.14123 -3.10474 16347 ft 253 kts 129°
2026-04-21 16:25 53.12983 -3.08225 16346 ft 253 kts 129°
2026-04-21 16:25 53.11854 -3.05993 16346 ft 251 kts 129°
2026-04-21 16:25 53.10737 -3.03790 16341 ft 251 kts 128°
2026-04-21 16:26 53.09611 -3.01562 16346 ft 251 kts 129°
2026-04-21 16:26 53.08480 -2.99333 16344 ft 250 kts 128°
2026-04-21 16:26 53.07355 -2.97107 16344 ft 251 kts 129°
2026-04-21 16:26 53.06225 -2.94886 16345 ft 251 kts 129°
2026-04-21 16:27 53.05098 -2.92670 16350 ft 252 kts 129°
2026-04-21 16:27 53.03974 -2.90493 16351 ft 249 kts 131°
2026-04-21 16:27 53.02504 -2.89023 16350 ft 253 kts 163°
2026-04-21 16:27 53.00735 -2.88688 16343 ft 258 kts 174°
2026-04-21 16:28 52.98924 -2.88801 16344 ft 260 kts 180°
2026-04-21 16:28 52.97106 -2.89058 16353 ft 261 kts 182°
2026-04-21 16:28 52.95310 -2.89278 16345 ft 262 kts 180°
2026-04-21 16:28 52.93490 -2.89496 16343 ft 261 kts 181°
2026-04-21 16:29 52.92262 -2.89624 16335 ft 262 kts 181°
2026-04-21 16:29 52.89850 -2.89853 16342 ft 261 kts 178°
2026-04-21 16:29 52.88035 -2.90052 16339 ft 262 kts 181°
2026-04-21 16:29 52.86240 -2.90454 16338 ft 263 kts 185°
2026-04-21 16:30 52.84429 -2.90960 16332 ft 263 kts 187°
2026-04-21 16:30 52.82615 -2.91430 16327 ft 263 kts 186°
2026-04-21 16:30 52.80825 -2.91896 16332 ft 263 kts 184°
2026-04-21 16:30 52.79007 -2.92327 16332 ft 263 kts 185°
2026-04-21 16:31 52.77190 -2.92749 16328 ft 263 kts 184°
2026-04-21 16:31 52.75376 -2.93176 16327 ft 263 kts 184°
2026-04-21 16:31 52.73566 -2.93588 16331 ft 263 kts 185°
2026-04-21 16:31 52.71773 -2.93987 16325 ft 263 kts 185°
2026-04-21 16:32 52.69949 -2.94328 16323 ft 264 kts 182°
2026-04-21 16:32 52.68113 -2.94476 16323 ft 264 kts 180°
2026-04-21 16:32 52.66275 -2.94583 16322 ft 264 kts 180°
2026-04-21 16:32 52.64441 -2.94693 16323 ft 264 kts 180°
2026-04-21 16:33 52.62602 -2.94809 16319 ft 264 kts 179°
2026-04-21 16:33 52.60764 -2.94932 16320 ft 264 kts 180°
2026-04-21 16:33 52.58949 -2.95079 16318 ft 265 kts 181°
2026-04-21 16:33 52.57104 -2.95240 16316 ft 264 kts 180°
2026-04-21 16:34 52.55268 -2.95363 16318 ft 264 kts 179°
2026-04-21 16:34 52.53425 -2.95452 16316 ft 264 kts 180°
2026-04-21 16:34 52.51584 -2.95595 16316 ft 264 kts 181°
2026-04-21 16:34 52.49774 -2.95836 16312 ft 264 kts 182°
2026-04-21 16:35 52.47932 -2.96064 16318 ft 265 kts 181°
2026-04-21 16:35 52.46083 -2.96235 16317 ft 265 kts 180°
2026-04-21 16:35 52.44235 -2.96380 16314 ft 266 kts 180°
2026-04-21 16:35 52.42409 -2.96519 16307 ft 266 kts 180°
2026-04-21 16:36 52.40555 -2.96662 16312 ft 266 kts 181°
2026-04-21 16:36 52.38703 -2.96789 16305 ft 267 kts 181°
2026-04-21 16:36 52.36845 -2.96935 16308 ft 267 kts 181°
2026-04-21 16:36 52.34987 -2.97094 16308 ft 267 kts 182°
2026-04-21 16:37 52.33131 -2.97238 16293 ft 267 kts 181°
2026-04-21 16:37 52.31280 -2.97378 16293 ft 268 kts 181°
2026-04-21 16:37 52.29414 -2.97517 16297 ft 269 kts 181°
2026-04-21 16:37 52.27532 -2.97662 16292 ft 270 kts 182°
2026-04-21 16:38 52.25647 -2.97822 16296 ft 270 kts 182°
2026-04-21 16:38 52.23792 -2.97967 16289 ft 270 kts 182°
2026-04-21 16:38 52.21905 -2.98123 16288 ft 271 kts 182°
2026-04-21 16:38 52.20017 -2.98277 16289 ft 272 kts 182°
2026-04-21 16:39 52.18119 -2.98428 16291 ft 273 kts 182°
2026-04-21 16:39 52.16221 -2.98584 16289 ft 274 kts 182°
2026-04-21 16:39 52.14959 -2.98685 16284 ft 274 kts 182°
2026-04-21 16:39 52.13049 -2.98849 16283 ft 271 kts 185°
2026-04-21 16:40 52.11267 -2.99786 16286 ft 271 kts 207°
2026-04-21 16:40 52.09079 -3.01795 16283 ft 273 kts 211°
2026-04-21 16:40 52.07989 -3.02837 16282 ft 274 kts 211°
2026-04-21 16:40 52.05772 -3.04853 16283 ft 274 kts 208°
2026-04-21 16:41 52.04626 -3.05823 16278 ft 275 kts 207°
2026-04-21 16:41 52.02944 -3.07231 16193 ft 279 kts 207°
2026-04-21 16:41 52.01176 -3.08721 15795 ft 291 kts 207°
2026-04-21 16:41 51.99337 -3.10269 15381 ft 302 kts 207°
2026-04-21 16:42 51.97447 -3.11864 14948 ft 310 kts 206°
2026-04-21 16:42 51.95514 -3.13489 14663 ft 313 kts 206°
2026-04-21 16:42 51.93658 -3.15054 14414 ft 285 kts 207°
2026-04-21 16:42 51.91995 -3.16454 14073 ft 255 kts 206°
2026-04-21 16:43 51.90483 -3.17729 13642 ft 235 kts 204°
2026-04-21 16:43 51.89066 -3.18907 13168 ft 222 kts 203°
2026-04-21 16:43 51.87715 -3.20033 12691 ft 215 kts 202°
2026-04-21 16:43 51.86394 -3.21131 12192 ft 211 kts 202°
2026-04-21 16:44 51.85114 -3.22187 11689 ft 207 kts 202°
2026-04-21 16:44 51.83839 -3.23251 11205 ft 209 kts 200°
2026-04-21 16:44 51.82539 -3.24309 10759 ft 207 kts 199°
2026-04-21 16:44 51.81262 -3.25357 10319 ft 204 kts 201°
2026-04-21 16:45 51.80003 -3.26392 9840 ft 202 kts 200°
2026-04-21 16:45 51.78783 -3.27436 9357 ft 199 kts 197°
2026-04-21 16:45 51.77553 -3.28453 8864 ft 198 kts 200°
2026-04-21 16:45 51.76331 -3.29490 8385 ft 199 kts 199°
2026-04-21 16:46 51.75103 -3.30507 7948 ft 198 kts 199°
2026-04-21 16:46 51.73891 -3.31489 7505 ft 196 kts 199°
2026-04-21 16:46 51.72671 -3.32483 7046 ft 197 kts 200°
2026-04-21 16:46 51.71450 -3.33493 6671 ft 195 kts 199°
2026-04-21 16:47 51.70247 -3.34489 6247 ft 194 kts 199°
2026-04-21 16:47 51.69044 -3.35479 5855 ft 194 kts 199°
2026-04-21 16:47 51.67845 -3.36471 5399 ft 193 kts 199°
2026-04-21 16:47 51.66649 -3.37464 4917 ft 192 kts 199°
2026-04-21 16:48 51.65470 -3.38446 4502 ft 192 kts 198°
2026-04-21 16:48 51.64291 -3.39440 4121 ft 191 kts 198°
2026-04-21 16:48 51.63128 -3.40426 3685 ft 189 kts 198°
2026-04-21 16:48 51.61959 -3.41370 3042 ft 188 kts 197°
2026-04-21 16:49 51.60781 -3.42322 2685 ft 188 kts 199°
2026-04-21 16:49 51.59658 -3.43262 2524 ft 178 kts 199°
2026-04-21 16:49 51.58494 -3.44201 2497 ft 197 kts 198°
2026-04-21 16:49 51.57187 -3.45249 2486 ft 220 kts 200°
2026-04-21 16:50 51.55775 -3.46424 2462 ft 235 kts 203°
2026-04-21 16:50 51.54329 -3.47670 2455 ft 229 kts 202°
2026-04-21 16:50 51.52983 -3.48865 2451 ft 218 kts 202°
2026-04-21 16:50 51.51678 -3.50026 2448 ft 210 kts 201°
2026-04-21 16:51 51.50428 -3.51178 2439 ft 204 kts 201°
2026-04-21 16:51 51.49222 -3.52297 2435 ft 195 kts 201°
2026-04-21 16:51 51.48117 -3.53337 2445 ft 179 kts 201°
2026-04-21 16:51 51.47057 -3.54334 2456 ft 175 kts 201°
2026-04-21 16:52 51.46016 -3.55219 2435 ft 163 kts 185°
2026-04-21 16:52 51.45053 -3.54900 2423 ft 132 kts 128°
2026-04-21 16:52 51.44742 -3.53654 2441 ft 118 kts 101°
2026-04-21 16:52 51.44538 -3.52372 2439 ft 118 kts 102°
2026-04-21 16:53 51.44320 -3.51123 2311 ft 119 kts 103°
2026-04-21 16:53 51.44089 -3.49902 2144 ft 109 kts 104°
2026-04-21 16:53 51.43858 -3.48765 1983 ft 106 kts 104°
2026-04-21 16:53 51.43617 -3.47652 1809 ft 105 kts 105°
2026-04-21 16:54 51.43362 -3.46573 1614 ft 104 kts 105°
2026-04-21 16:54 51.43107 -3.45495 1416 ft 103 kts 104°
2026-04-21 16:54 51.42849 -3.44426 1248 ft 103 kts 109°
2026-04-21 16:54 51.42496 -3.43397 1172 ft 109 kts 112°
2026-04-21 16:55 51.42135 -3.42327 1076 ft 108 kts 111°
2026-04-21 16:55 51.41792 -3.41254 998 ft 110 kts 107°
2026-04-21 16:55 51.41462 -3.40081 854 ft 118 kts 109°
2026-04-21 16:55 51.41092 -3.38944 702 ft 114 kts 109°
2026-04-21 16:56 51.40752 -3.37802 575 ft 114 kts 109°
2026-04-21 16:56 51.40392 -3.36651 417 ft 115 kts 112°
2026-04-21 16:56 51.40043 -3.35546 254 ft 111 kts 111°
2026-04-21 16:56 51.39746 -3.34574 219 ft 58 kts 115°
2026-04-21 16:57 51.39610 -3.34159 219 ft 21 kts 119°
2026-04-21 16:57 51.39610 -3.33938 219 ft 30 kts 75°
2026-04-21 16:57 51.39633 -3.33782 218 ft 13 kts 76°
2026-04-21 16:57 51.39702 -3.33682 218 ft 21 kts 28°
2026-04-21 16:58 51.39775 -3.33623 218 ft 7 kts 22°
2026-04-21 16:58 51.39819 -3.33690 220 ft 12 kts 298°
2026-04-21 16:58 51.39837 -3.33747 218 ft 1 kts 297°
2026-04-21 16:58 51.39839 -3.33751 218 ft 0 kts 297°
2026-04-21 17:06 51.39837 -3.33747 218 ft 0 kts 297°